Voltar ao catálogo

USA 238 DEB

AtivoLEO
NORAD 38773·DEBRIS·🇺🇸 United States

Lançado Sep 13, 2012 de Vandenberg Space Force Base

Loading…

Próximas Passagens (próximas 24 horas)

TLE

ObsoletoSource: Mike McCants

Época: Jul 20, 2026, 20:53 UTC

1 38773U 12048P   26201.87048512 0.00000000  00000-0  00000-0 0    02
2 38773  63.4244 122.7472 0311724 358.6294   1.3706 13.41005328    07

Acompanhe USA 238 DEB em tempo real com AllMySat

Download on the App Store